Location: Proctor
(47.8934°N, 114.3048°W)
Time: 18:04:24
(UTC+00:00)

Envisat - Visible Passes

Search period start: 25 January 2022 00:00
Search period end: 04 February 2022 00:00
Orbit: 764 x 766 km, 98.2° (Epoch: 25 January)

Date Brightness Start Highest point End Pass type
(mag) Time Alt. Az. Time Alt. Az. Time Alt. Az.
25 Jan 6.2 01:16:19 10° WSW 01:18:18 12° W 01:20:17 10° WNW visible
25 Jan 5.0 11:39:15 10° NE 11:43:29 26° E 11:47:41 10° SSE visible
25 Jan 3.2 13:17:50 10° N 13:22:42 47° WNW 13:27:32 10° SW visible
26 Jan 5.9 11:04:04 10° ENE 11:06:09 12° E 11:08:13 10° ESE visible
26 Jan 2.9 12:40:48 10° NNE 12:45:55 87° ESE 12:51:00 10° SSW visible
26 Jan 4.5 14:21:15 10° NNW 14:24:15 16° WNW 14:27:16 10° W visible
27 Jan 4.1 12:04:07 10° NNE 12:08:56 42° E 12:13:45 10° SSE visible
27 Jan 3.8 13:43:26 10° N 13:47:48 30° WNW 13:52:09 10° WSW visible
28 Jan 6.0 01:03:35 10° SW 01:06:32 15° W 01:09:30 10° NW visible
28 Jan 5.3 11:27:58 10° NE 11:31:46 21° E 11:35:33 10° SE visible
28 Jan 3.0 13:06:10 10° N 13:11:10 58° WNW 13:16:08 10° SSW visible
29 Jan 3.2 12:29:13 10° NNE 12:34:19 70° ESE 12:39:23 10° S visible
29 Jan 4.3 14:09:17 10° NNW 14:12:49 19° WNW 14:16:20 10° WSW visible
30 Jan 4.5 11:52:39 10° NNE 11:57:17 34° E 12:01:52 10° SSE visible
30 Jan 3.5 13:31:41 10° N 13:36:18 36° WNW 13:40:54 10° SW visible
31 Jan 5.6 11:16:48 10° NE 11:20:02 17° E 11:23:15 10° SE visible
31 Jan 2.8 12:54:30 10° N 12:59:35 72° WNW 13:04:38 10° SSW visible
01 Feb 3.6 12:17:40 10° NNE 12:22:41 56° E 12:27:40 10° S visible
01 Feb 4.1 13:57:23 10° N 14:01:21 23° WNW 14:05:17 10° WSW visible
02 Feb 6.3 01:18:53 10° WSW 01:20:26 11° W 01:22:00 10° WNW visible
02 Feb 4.9 11:41:16 10° NE 11:45:35 27° E 11:49:53 10° SSE visible
02 Feb 3.3 13:19:57 10° N 13:24:46 44° WNW 13:29:34 10° SW visible
03 Feb 5.8 11:05:52 10° ENE 11:08:17 13° E 11:10:40 10° ESE visible
03 Feb 2.9 12:42:53 10° NNE 12:48:00 88° WNW 12:53:05 10° SSW visible
03 Feb 4.5 14:23:28 10° NNW 14:26:18 15° NW 14:29:07 10° W visible
